Location: Moscow
(55.7500°N, 37.5830°E)
Time: 20:56:30
(UTC+03:00)

Explorer 7 - All Passes

Search period start: 30 November 2021 00:00
Search period end: 10 December 2021 00:00
Orbit: 483 x 675 km, 50.3° (Epoch: 29 November)

Date Brightness Start Highest point End Pass type
(mag) Time Alt. Az. Time Alt. Az. Time Alt. Az.
30 Nov - 08:06:05 10° SSW 08:09:01 19° SSE 08:11:50 10° ESE daylight
30 Nov - 09:45:07 10° WSW 09:48:47 35° S 09:52:18 10° ESE daylight
30 Nov - 11:25:11 10° WSW 11:28:42 32° SSW 11:32:06 10° SE daylight
30 Nov - 13:06:03 10° WSW 13:08:20 15° SSW 13:10:36 10° S daylight
01 Dec - 08:09:31 10° SSW 08:12:51 24° SSE 08:16:02 10° ESE daylight
01 Dec - 09:48:59 10° WSW 09:52:42 37° S 09:56:15 10° ESE daylight
01 Dec - 11:29:12 10° WSW 11:32:35 28° SSW 11:35:52 10° SE daylight
01 Dec - 13:10:49 10° WSW 13:12:06 11° SW 13:13:21 10° SSW daylight
02 Dec - 06:35:28 10° SSE 06:37:07 12° SE 06:38:44 10° ESE visible
02 Dec - 08:13:08 10° SW 08:16:42 28° SSE 08:20:07 10° ESE daylight
02 Dec - 09:52:54 10° WSW 09:56:37 37° S 10:00:11 10° ESE daylight
02 Dec - 11:33:16 10° WSW 11:36:26 24° SSW 11:39:31 10° SSE daylight
03 Dec - 06:38:14 10° S 06:40:52 16° SSE 06:43:26 10° ESE visible
03 Dec - 08:16:51 10° SW 08:20:35 33° SSE 08:24:08 10° ESE daylight
03 Dec - 09:56:50 10° WSW 10:00:31 36° S 10:04:03 10° ESE daylight
03 Dec - 11:37:26 10° WSW 11:40:15 19° SSW 11:43:00 10° SSE daylight
04 Dec - 06:41:29 10° SSW 06:44:40 21° SSE 06:47:44 10° ESE visible
04 Dec - 08:20:40 10° WSW 08:24:29 36° S 08:28:06 10° ESE daylight
04 Dec - 10:00:49 10° WSW 10:04:25 32° SSW 10:07:52 10° SE daylight
04 Dec - 11:41:47 10° WSW 11:44:01 15° SSW 11:46:14 10° S daylight
05 Dec - 06:44:57 10° SW 06:48:30 26° SSE 06:51:52 10° ESE visible
05 Dec - 08:24:32 10° WSW 08:28:23 38° S 08:32:03 10° ESE daylight
05 Dec - 10:04:49 10° WSW 10:08:17 28° SSW 10:11:36 10° SE daylight
05 Dec - 11:46:40 10° SW 11:47:45 11° SW 11:48:49 10° SSW daylight
06 Dec - 05:10:33 10° S 05:12:43 14° SE 05:14:50 10° ESE visible
06 Dec - 06:48:36 10° SW 06:52:21 30° SSE 06:55:55 10° ESE visible
06 Dec - 08:28:26 10° WSW 08:32:17 38° S 08:35:57 10° ESE daylight
06 Dec - 10:08:53 10° WSW 10:12:06 24° SSW 10:15:13 10° SSE daylight
07 Dec - 05:13:30 10° SSW 05:16:28 18° SSE 05:19:20 10° ESE visible
07 Dec - 06:52:20 10° SW 06:56:13 35° S 06:59:55 10° ESE visible
07 Dec - 08:32:22 10° WSW 08:36:11 36° S 08:39:48 10° ESE daylight
07 Dec - 10:13:03 10° WSW 10:15:54 19° SSW 10:18:40 10° SSE daylight
08 Dec - 05:16:49 10° SSW 05:20:15 23° SSE 05:23:33 10° ESE visible
08 Dec - 06:56:08 10° WSW 07:00:07 38° S 07:03:52 10° ESE visible
08 Dec - 08:36:20 10° WSW 08:40:03 32° SSW 08:43:36 10° SE daylight
08 Dec - 10:17:24 10° WSW 10:19:39 15° SW 10:21:50 10° S daylight
09 Dec - 03:43:19 10° SSE 03:44:33 11° SE 03:45:44 10° SE visible
09 Dec - 05:20:20 10° SW 05:24:05 28° SSE 05:27:39 10° E visible
09 Dec - 07:00:00 10° WSW 07:04:00 39° S 07:07:47 10° ESE visible
09 Dec - 08:40:20 10° W 08:43:54 28° SSW 08:47:18 10° SE daylight
09 Dec - 10:22:25 10° SW 10:23:20 11° SW 10:24:14 10° SSW daylight
